Eastover, SC

10:05 AM EST on January 22, 2018 (GMT -0500)
McEntire Angs

Weather History for KMMT - December, 2012

Change the Weather History Date:

Tuesday, December 11, 2012

  Actual Average Record
Temperature  
Mean Temperature 58 °F -  
Max Temperature 64 °F 56 °F 78 °F (2007)
Min Temperature 53 °F 36 °F 23 °F (2016)
Degree Days  
Heating Degree Days 6    
Growing Degree Days 8 (Base 50)    
Moisture  
Dew Point 51 °F    
Average Humidity 78    
Maximum Humidity 100    
Minimum Humidity 51    
Precipitation  
Precipitation 0.00 in - - ()
Sea Level Pressure  
Sea Level Pressure 29.92 in    
Wind  
Wind Speed 4 mph (West)    
Max Wind Speed 9 mph    
Max Gust Speed -    
Visibility 8 miles    
Events Rain    
Averages and records for this station are not official NWS values.
T = Trace of Precipitation, MM = Missing Value Source: NWS Daily Summary

Daily Weather History Graph

Daily Weather History Graph

Search for Another Location

Airport or City:

Trip Planner

Search our weather history database for the weather conditions in past years. The results will help you decide how hot, cold, wet, or windy it might be!

Date:

Astronomy

Dec. 11, 2012 Rise Set
Actual Time 7:18 AM EST 5:14 PM EST
Civil Twilight 6:51 AM EST 5:42 PM EST
Nautical Twilight 6:19 AM EST 6:13 PM EST
Astronomical Twilight 5:49 AM EST 6:44 PM EST
Moon 5:14 AM EST (12/11) 3:50 PM EST (12/11)
Length of Visible Light 10h 51m
Length of Day
9h 56m
Waning Crescent, 4% of the Moon is Illuminated
Dec 11
Waning Crescent
Dec 13
New
Dec 20
First Quarter
Dec 28
Full
Jan 4
Last Quarter

Hourly Weather History & Observations

Time (EST) Temp. Dew Point Humidity Pressure Visibility Wind Dir Wind Speed Gust Speed Precip Events Conditions
12:55 AM 55.2 °F 54.9 °F 99% 29.77 in 10.0 mi Calm Calm - N/A   Scattered Clouds
1:55 AM 55.9 °F 55.9 °F 100% 29.79 in 10.0 mi Calm Calm - N/A   Mostly Cloudy
2:07 AM 57.2 °F 57.2 °F 100% 29.79 in 10.0 mi Calm Calm - N/A   Overcast
2:45 AM 59.0 °F 57.2 °F 94% 29.79 in 10.0 mi SW 4.6 mph - N/A   Scattered Clouds
2:55 AM 58.8 °F 57.2 °F 94% 29.80 in 10.0 mi SW 3.5 mph - N/A   Partly Cloudy
3:52 AM 53.6 °F 53.6 °F 100% 29.81 in 2.0 mi NW 4.6 mph - N/A   Scattered Clouds
3:53 AM 53.6 °F 53.6 °F 100% 29.82 in 1.5 mi NW 4.6 mph - N/A   Scattered Clouds
3:55 AM 54.0 °F 53.8 °F 99% 29.82 in 1.2 mi NW 5.8 mph - N/A   Scattered Clouds
3:57 AM 53.6 °F 53.6 °F 100% 29.82 in 1.2 mi WNW 5.8 mph - N/A   Mostly Cloudy
3:58 AM 53.6 °F 53.6 °F 100% 29.82 in 1.0 mi WNW 5.8 mph - N/A   Mostly Cloudy
3:59 AM 53.6 °F 53.6 °F 100% 29.82 in 1.2 mi WNW 5.8 mph - N/A   Mostly Cloudy
4:01 AM 53.6 °F 53.6 °F 100% 29.82 in 1.5 mi West 4.6 mph - N/A   Mostly Cloudy
4:02 AM 53.6 °F 53.6 °F 100% 29.82 in 1.8 mi West 4.6 mph - N/A   Mostly Cloudy
4:03 AM 53.6 °F 53.6 °F 100% 29.82 in 2.5 mi West 3.5 mph - N/A   Mostly Cloudy
4:04 AM 53.6 °F 53.6 °F 100% 29.82 in 3.0 mi West 3.5 mph - N/A   Mostly Cloudy
4:55 AM 59.2 °F 58.8 °F 99% 29.84 in 10.0 mi West 3.5 mph - N/A   Overcast
5:11 AM 59.0 °F 59.0 °F 100% 29.85 in 10.0 mi West 3.5 mph - N/A   Overcast
5:55 AM 57.6 °F 57.4 °F 99% 29.85 in 10.0 mi Calm Calm - N/A   Scattered Clouds
6:55 AM 56.3 °F 56.3 °F 100% 29.88 in 7.0 mi West 4.6 mph - N/A   Mostly Cloudy
7:55 AM 59.4 °F 58.1 °F 96% 29.90 in 10.0 mi Calm Calm - N/A   Overcast
8:55 AM 60.8 °F 54.3 °F 79% 29.92 in 10.0 mi WSW 5.8 mph - N/A   Overcast
9:55 AM 62.4 °F 50.2 °F 64% 29.95 in 10.0 mi WSW 9.2 mph - N/A   Overcast
10:05 AM 62.6 °F 50.0 °F 63% 29.96 in 10.0 mi WSW 4.6 mph - N/A   Overcast
10:43 AM 62.6 °F 48.2 °F 59% 29.97 in 10.0 mi WSW 6.9 mph - N/A   Overcast
10:55 AM 63.0 °F 48.2 °F 59% 29.96 in 10.0 mi SW 5.8 mph - N/A   Overcast
11:55 AM 64.0 °F 47.3 °F 54% 29.96 in 10.0 mi SW 8.1 mph - N/A   Overcast
12:55 PM 64.9 °F 46.4 °F 51% 29.95 in 10.0 mi SW 8.1 mph - N/A   Overcast
1:33 PM 64.4 °F 48.2 °F 56% 29.95 in 10.0 mi SSW 8.1 mph - N/A   Light Drizzle
1:55 PM 64.4 °F 46.8 °F 53% 29.96 in 10.0 mi South 6.9 mph - N/A   Overcast
2:55 PM 64.2 °F 46.6 °F 53% 29.96 in 10.0 mi SSW 6.9 mph - N/A   Overcast
3:55 PM 63.9 °F 46.4 °F 53% 29.98 in 10.0 mi SW 4.6 mph - N/A   Overcast
4:55 PM 62.8 °F 45.0 °F 52% 29.99 in 10.0 mi West 3.5 mph - N/A   Overcast
5:55 PM 61.0 °F 46.2 °F 58% 30.00 in 10.0 mi NW 8.1 mph - N/A   Overcast
6:55 PM 58.6 °F 46.4 °F 64% 30.02 in 10.0 mi NW 8.1 mph - N/A   Overcast
7:55 PM 58.1 °F 45.1 °F 62% 30.04 in 10.0 mi NNW 8.1 mph - N/A   Overcast
8:55 PM 57.6 °F 45.1 °F 63% 30.07 in 10.0 mi North 4.6 mph - N/A   Overcast
9:55 PM 56.7 °F 45.7 °F 67% 30.09 in 10.0 mi Calm Calm - N/A   Overcast
10:55 PM 56.5 °F 44.6 °F 64% 30.07 in 10.0 mi Calm Calm - N/A   Overcast
11:30 PM 55.4 °F 44.6 °F 67% 30.09 in 10.0 mi North 5.8 mph - N/A Rain Light Rain
11:45 PM 55.4 °F 42.8 °F 63% 30.09 in 10.0 mi North 5.8 mph - N/A   Overcast
11:47 PM 55.4 °F 42.8 °F 63% 30.09 in 10.0 mi North 4.6 mph - N/A Rain Light Rain
11:55 PM 55.2 °F 42.4 °F 62% 30.09 in 10.0 mi NNE 4.6 mph - 0.00 in Rain Light Rain
11:58 PM 55.4 °F 42.8 °F 63% 30.10 in 10.0 mi Calm Calm - N/A   Mostly Cloudy